Year,Month,Day,Hour,Minute,Value (Times are PST for temperature in C)
2017,06,19,00,00,14.10
2017,06,19,00,01,14.10
2017,06,19,00,02,14.10
2017,06,19,00,03,14.10
2017,06,19,00,04,14.10
2017,06,19,00,05,14.10
2017,06,19,00,06,14.10
2017,06,19,00,07,14.10
2017,06,19,00,08,14.10
2017,06,19,00,09,14.10
2017,06,19,00,10,14.10
2017,06,19,00,11,14.10
2017,06,19,00,12,14.10
2017,06,19,00,13,14.10
2017,06,19,00,14,14.10
2017,06,19,00,15,14.10
2017,06,19,00,16,14.10
2017,06,19,00,17,14.10
2017,06,19,00,18,14.10
2017,06,19,00,19,14.10
2017,06,19,00,20,14.10
2017,06,19,00,21,14.10
2017,06,19,00,22,14.10
2017,06,19,00,23,14.10
2017,06,19,00,24,14.10
2017,06,19,00,25,14.10
2017,06,19,00,26,14.10
2017,06,19,00,27,14.10
2017,06,19,00,28,14.10
2017,06,19,00,29,14.10
2017,06,19,00,30,14.10
2017,06,19,00,31,14.10
2017,06,19,00,32,14.10
2017,06,19,00,33,14.10
2017,06,19,00,34,14.10
2017,06,19,00,35,14.10
2017,06,19,00,36,14.10
2017,06,19,00,37,14.10
2017,06,19,00,38,14.10
2017,06,19,00,39,14.10
2017,06,19,00,40,14.10
2017,06,19,00,41,14.00
2017,06,19,00,42,14.00
2017,06,19,00,43,14.00
2017,06,19,00,44,14.00
2017,06,19,00,45,14.00
2017,06,19,00,46,14.00
2017,06,19,00,47,14.00
2017,06,19,00,48,14.00
2017,06,19,00,49,14.00
2017,06,19,00,50,14.00
2017,06,19,00,51,13.90
2017,06,19,00,52,13.90
2017,06,19,00,53,13.90
2017,06,19,00,54,13.90
2017,06,19,00,55,13.90
2017,06,19,00,56,13.90
2017,06,19,00,57,13.90
2017,06,19,00,58,13.90
2017,06,19,00,59,13.90
2017,06,19,01,00,13.90
2017,06,19,01,01,13.90
2017,06,19,01,02,14.00
2017,06,19,01,03,14.00
2017,06,19,01,04,14.00
2017,06,19,01,05,14.00
2017,06,19,01,06,14.00
2017,06,19,01,07,14.00
2017,06,19,01,08,14.00
2017,06,19,01,09,14.00
2017,06,19,01,10,14.00
2017,06,19,01,11,14.00
2017,06,19,01,12,14.00
2017,06,19,01,13,14.00
2017,06,19,01,14,14.00
2017,06,19,01,15,14.00
2017,06,19,01,16,14.00
2017,06,19,01,17,13.90
2017,06,19,01,18,13.90
2017,06,19,01,19,13.90
2017,06,19,01,20,13.90
2017,06,19,01,21,13.90
2017,06,19,01,22,13.90
2017,06,19,01,23,13.90
2017,06,19,01,24,13.90
2017,06,19,01,25,13.90
2017,06,19,01,26,13.90
2017,06,19,01,27,13.90
2017,06,19,01,28,13.90
2017,06,19,01,29,13.90
2017,06,19,01,30,13.90
2017,06,19,01,31,13.90
2017,06,19,01,32,13.90
2017,06,19,01,33,13.90
2017,06,19,01,34,14.00
2017,06,19,01,35,14.00
2017,06,19,01,36,14.00
2017,06,19,01,37,14.00
2017,06,19,01,38,14.00
2017,06,19,01,39,14.00
2017,06,19,01,40,14.00
2017,06,19,01,41,14.00
2017,06,19,01,42,14.10
2017,06,19,01,43,14.10
2017,06,19,01,44,14.10
2017,06,19,01,45,14.10
2017,06,19,01,46,14.10
2017,06,19,01,47,14.10
2017,06,19,01,48,14.10
2017,06,19,01,49,14.10
2017,06,19,01,50,14.10
2017,06,19,01,51,14.10
2017,06,19,01,52,14.10
2017,06,19,01,53,14.20
2017,06,19,01,54,14.20
2017,06,19,01,55,14.20
2017,06,19,01,56,14.20
2017,06,19,01,57,14.20
2017,06,19,01,58,14.20
2017,06,19,01,59,14.20
2017,06,19,02,00,14.20
2017,06,19,02,01,14.20
2017,06,19,02,02,14.20
2017,06,19,02,03,14.20
2017,06,19,02,04,14.20
2017,06,19,02,05,14.20
2017,06,19,02,06,14.20
2017,06,19,02,07,14.20
2017,06,19,02,08,14.20
2017,06,19,02,09,14.20
2017,06,19,02,10,14.20
2017,06,19,02,11,14.20
2017,06,19,02,12,14.20
2017,06,19,02,13,14.20
2017,06,19,02,14,14.20
2017,06,19,02,15,14.20
2017,06,19,02,16,14.20
2017,06,19,02,17,14.20
2017,06,19,02,18,14.20
2017,06,19,02,19,14.30
2017,06,19,02,20,14.30
2017,06,19,02,21,14.30
2017,06,19,02,22,14.30
2017,06,19,02,23,14.30
2017,06,19,02,24,14.30
2017,06,19,02,25,14.30
2017,06,19,02,26,14.30
2017,06,19,02,27,14.30
2017,06,19,02,28,14.30
2017,06,19,02,29,14.30
2017,06,19,02,30,14.30
2017,06,19,02,31,14.30
2017,06,19,02,32,14.40
2017,06,19,02,33,14.40
2017,06,19,02,34,14.40
2017,06,19,02,35,14.40
2017,06,19,02,36,14.40
2017,06,19,02,37,14.40
2017,06,19,02,38,14.40
2017,06,19,02,39,14.40
2017,06,19,02,40,14.40
2017,06,19,02,41,14.40
2017,06,19,02,42,14.40
2017,06,19,02,43,14.40
2017,06,19,02,44,14.40
2017,06,19,02,45,14.40
2017,06,19,02,46,14.40
2017,06,19,02,47,14.40
2017,06,19,02,48,14.30
2017,06,19,02,49,14.30
2017,06,19,02,50,14.30
2017,06,19,02,51,14.30
2017,06,19,02,52,14.30
2017,06,19,02,53,14.30
2017,06,19,02,54,14.30
2017,06,19,02,55,14.30
2017,06,19,02,56,14.30
2017,06,19,02,57,14.30
2017,06,19,02,58,14.30
2017,06,19,02,59,14.20
2017,06,19,03,00,14.20
2017,06,19,03,01,14.20
2017,06,19,03,02,14.20
2017,06,19,03,03,14.20
2017,06,19,03,04,14.20
2017,06,19,03,05,14.20
2017,06,19,03,06,14.20
2017,06,19,03,07,14.20
2017,06,19,03,08,14.20
2017,06,19,03,09,14.20
2017,06,19,03,10,14.20
2017,06,19,03,11,14.10
2017,06,19,03,12,14.10
2017,06,19,03,13,14.10
2017,06,19,03,14,14.10
2017,06,19,03,15,14.10
2017,06,19,03,16,14.10
2017,06,19,03,17,14.10
2017,06,19,03,18,14.10
2017,06,19,03,19,14.00
2017,06,19,03,20,14.00
2017,06,19,03,21,14.00
2017,06,19,03,22,14.00
2017,06,19,03,23,14.00
2017,06,19,03,24,14.00
2017,06,19,03,25,14.00
2017,06,19,03,26,13.90
2017,06,19,03,27,13.90
2017,06,19,03,28,13.90
2017,06,19,03,29,13.90
2017,06,19,03,30,13.90
2017,06,19,03,31,13.90
2017,06,19,03,32,13.90
2017,06,19,03,33,13.90
2017,06,19,03,34,13.90
2017,06,19,03,35,13.80
2017,06,19,03,36,13.80
2017,06,19,03,37,13.90
2017,06,19,03,38,13.90
2017,06,19,03,39,13.90
2017,06,19,03,40,13.90
2017,06,19,03,41,13.90
2017,06,19,03,42,13.90
2017,06,19,03,43,13.90
2017,06,19,03,44,13.90
2017,06,19,03,45,13.90
2017,06,19,03,46,13.90
2017,06,19,03,47,13.90
2017,06,19,03,48,13.90
2017,06,19,03,49,13.90
2017,06,19,03,50,13.90
2017,06,19,03,51,13.90
2017,06,19,03,52,13.90
2017,06,19,03,53,13.90
2017,06,19,03,54,13.90
2017,06,19,03,55,13.90
2017,06,19,03,56,13.90
2017,06,19,03,57,13.90
2017,06,19,03,58,13.80
2017,06,19,03,59,13.80
2017,06,19,04,00,13.80
2017,06,19,04,01,13.80
2017,06,19,04,02,13.80
2017,06,19,04,03,13.80
2017,06,19,04,04,13.80
2017,06,19,04,05,13.80
2017,06,19,04,06,13.80
2017,06,19,04,07,13.80
2017,06,19,04,08,13.80
2017,06,19,04,09,13.80
2017,06,19,04,10,13.80
2017,06,19,04,11,13.70
2017,06,19,04,12,13.70
2017,06,19,04,13,13.70
2017,06,19,04,14,13.70
2017,06,19,04,15,13.70
2017,06,19,04,16,13.70
2017,06,19,04,17,13.70
2017,06,19,04,18,13.70
2017,06,19,04,19,13.70
2017,06,19,04,20,13.70
2017,06,19,04,21,13.70
2017,06,19,04,22,13.70
2017,06,19,04,23,13.70
2017,06,19,04,24,13.70
2017,06,19,04,25,13.60
2017,06,19,04,26,13.60
2017,06,19,04,27,13.60
2017,06,19,04,28,13.60
2017,06,19,04,29,13.60
2017,06,19,04,30,13.50
2017,06,19,04,31,13.50
2017,06,19,04,32,13.50
2017,06,19,04,33,13.50
2017,06,19,04,34,13.40
2017,06,19,04,35,13.40
2017,06,19,04,36,13.40
2017,06,19,04,37,13.40
2017,06,19,04,38,13.30
2017,06,19,04,39,13.30
2017,06,19,04,40,13.30
2017,06,19,04,41,13.30
2017,06,19,04,42,13.30
2017,06,19,04,43,13.30
2017,06,19,04,44,13.20
2017,06,19,04,45,13.20
2017,06,19,04,46,13.20
2017,06,19,04,47,13.20
2017,06,19,04,48,13.20
2017,06,19,04,49,13.10
2017,06,19,04,50,13.10
2017,06,19,04,51,13.10
2017,06,19,04,52,13.10
2017,06,19,04,53,13.10
2017,06,19,04,54,13.10
2017,06,19,04,55,13.00
2017,06,19,04,56,13.00
2017,06,19,04,57,13.00
2017,06,19,04,58,13.00
2017,06,19,04,59,13.00
2017,06,19,05,00,12.90
2017,06,19,05,01,12.90
2017,06,19,05,02,12.90
2017,06,19,05,03,12.90
2017,06,19,05,04,12.90
2017,06,19,05,05,12.90
2017,06,19,05,06,12.80
2017,06,19,05,07,12.80
2017,06,19,05,08,12.80
2017,06,19,05,09,12.80
2017,06,19,05,10,12.80
2017,06,19,05,11,12.80
2017,06,19,05,12,12.80
2017,06,19,05,13,12.80
2017,06,19,05,14,12.80
2017,06,19,05,15,12.80
2017,06,19,05,16,12.80
2017,06,19,05,17,12.80
2017,06,19,05,18,12.80
2017,06,19,05,19,12.80
2017,06,19,05,20,12.80
2017,06,19,05,21,12.80
2017,06,19,05,22,12.80
2017,06,19,05,23,12.70
2017,06,19,05,24,12.70
2017,06,19,05,25,12.70
2017,06,19,05,26,12.70
2017,06,19,05,27,12.70
2017,06,19,05,28,12.70
2017,06,19,05,29,12.70
2017,06,19,05,30,12.70
2017,06,19,05,31,12.60
2017,06,19,05,32,12.60
2017,06,19,05,33,12.60
2017,06,19,05,34,12.60
2017,06,19,05,35,12.60
2017,06,19,05,36,12.60
2017,06,19,05,37,12.60
2017,06,19,05,38,12.60
2017,06,19,05,39,12.60
2017,06,19,05,40,12.60
2017,06,19,05,41,12.60
2017,06,19,05,42,12.60
2017,06,19,05,43,12.60
2017,06,19,05,44,12.60
2017,06,19,05,45,12.60
2017,06,19,05,46,12.60
2017,06,19,05,47,12.60
2017,06,19,05,48,12.60
2017,06,19,05,49,12.60
2017,06,19,05,50,12.60
2017,06,19,05,51,12.60
2017,06,19,05,52,12.60
2017,06,19,05,53,12.60
2017,06,19,05,54,12.60
2017,06,19,05,55,12.60
2017,06,19,05,56,12.70
2017,06,19,05,57,12.70
2017,06,19,05,58,12.70
2017,06,19,05,59,12.80
2017,06,19,06,00,12.80
2017,06,19,06,01,12.80
2017,06,19,06,02,12.80
2017,06,19,06,03,12.80
2017,06,19,06,04,12.80
2017,06,19,06,05,12.80
2017,06,19,06,06,12.80
2017,06,19,06,07,12.80
2017,06,19,06,08,12.90
2017,06,19,06,09,12.90
2017,06,19,06,10,12.90
2017,06,19,06,11,12.90
2017,06,19,06,12,12.90
2017,06,19,06,13,12.90
2017,06,19,06,14,12.90
2017,06,19,06,15,13.00
2017,06,19,06,16,13.00
2017,06,19,06,17,13.00
2017,06,19,06,18,13.00
2017,06,19,06,19,13.00
2017,06,19,06,20,13.10
2017,06,19,06,21,13.10
2017,06,19,06,22,13.10
2017,06,19,06,23,13.10
2017,06,19,06,24,13.10
2017,06,19,06,25,13.20
2017,06,19,06,26,13.20
2017,06,19,06,27,13.20
2017,06,19,06,28,13.20
2017,06,19,06,29,13.20
2017,06,19,06,30,13.30
2017,06,19,06,31,13.30
2017,06,19,06,32,13.30
2017,06,19,06,33,13.30
2017,06,19,06,34,13.30
2017,06,19,06,35,13.30
2017,06,19,06,36,13.30
2017,06,19,06,37,13.30
2017,06,19,06,38,13.30
2017,06,19,06,39,13.30
2017,06,19,06,40,13.40
2017,06,19,06,41,13.40
2017,06,19,06,42,13.40
2017,06,19,06,43,13.40
2017,06,19,06,44,13.40
2017,06,19,06,45,13.40
2017,06,19,06,46,13.50
2017,06,19,06,47,13.50
2017,06,19,06,48,13.50
2017,06,19,06,49,13.50
2017,06,19,06,50,13.50
2017,06,19,06,51,13.50
2017,06,19,06,52,13.50
2017,06,19,06,53,13.50
2017,06,19,06,54,13.60
2017,06,19,06,55,13.60
2017,06,19,06,56,13.60
2017,06,19,06,57,13.60
2017,06,19,06,58,13.60
2017,06,19,06,59,13.70
2017,06,19,07,00,13.70
2017,06,19,07,01,13.70
2017,06,19,07,02,13.70
2017,06,19,07,03,13.70
2017,06,19,07,04,13.70
2017,06,19,07,05,13.70
2017,06,19,07,06,13.70
2017,06,19,07,07,13.80
2017,06,19,07,08,13.80
2017,06,19,07,09,13.80
2017,06,19,07,10,13.90
2017,06,19,07,11,13.90
2017,06,19,07,12,13.90
2017,06,19,07,13,13.90
2017,06,19,07,14,13.90
2017,06,19,07,15,14.00
2017,06,19,07,16,14.00
2017,06,19,07,17,14.00
2017,06,19,07,18,14.00
2017,06,19,07,19,14.10
2017,06,19,07,20,14.10
2017,06,19,07,21,14.10
2017,06,19,07,22,14.20
2017,06,19,07,23,14.20
2017,06,19,07,24,14.20
2017,06,19,07,25,14.20
2017,06,19,07,26,14.20
2017,06,19,07,27,14.20
2017,06,19,07,28,14.20
2017,06,19,07,29,14.30
2017,06,19,07,30,14.30
2017,06,19,07,31,14.30
2017,06,19,07,32,14.40
2017,06,19,07,33,14.40
2017,06,19,07,34,14.40
2017,06,19,07,35,14.40
2017,06,19,07,36,14.40
2017,06,19,07,37,14.40
2017,06,19,07,38,14.40
2017,06,19,07,39,14.50
2017,06,19,07,40,14.50
2017,06,19,07,41,14.50
2017,06,19,07,42,14.50
2017,06,19,07,43,14.50
2017,06,19,07,44,14.50
2017,06,19,07,45,14.60
2017,06,19,07,46,14.60
2017,06,19,07,47,14.60
2017,06,19,07,48,14.60
2017,06,19,07,49,14.60
2017,06,19,07,50,14.70
2017,06,19,07,51,14.70
2017,06,19,07,52,14.70
2017,06,19,07,53,14.70
2017,06,19,07,54,14.70
2017,06,19,07,55,14.70
2017,06,19,07,56,14.70
2017,06,19,07,57,14.80
2017,06,19,07,58,14.80
2017,06,19,07,59,14.80
2017,06,19,08,00,14.80
2017,06,19,08,01,14.80
2017,06,19,08,02,14.80
2017,06,19,08,03,14.90
2017,06,19,08,04,14.90
2017,06,19,08,05,14.90
2017,06,19,08,06,14.90
2017,06,19,08,07,14.90
2017,06,19,08,08,14.90
2017,06,19,08,09,14.90
2017,06,19,08,10,14.90
2017,06,19,08,11,14.90
2017,06,19,08,12,15.00
2017,06,19,08,13,15.00
2017,06,19,08,14,15.00
2017,06,19,08,15,15.00
2017,06,19,08,16,15.00
2017,06,19,08,17,15.00
2017,06,19,08,18,15.00
2017,06,19,08,19,15.10
2017,06,19,08,20,15.10
2017,06,19,08,21,15.10
2017,06,19,08,22,15.20
2017,06,19,08,23,15.20
2017,06,19,08,24,15.20
2017,06,19,08,25,15.30
2017,06,19,08,26,15.30
2017,06,19,08,27,15.30
2017,06,19,08,28,15.30
2017,06,19,08,29,15.30
2017,06,19,08,30,15.30
2017,06,19,08,31,15.40
2017,06,19,08,32,15.40
2017,06,19,08,33,15.40
2017,06,19,08,34,15.50
2017,06,19,08,35,15.50
2017,06,19,08,36,15.60
2017,06,19,08,37,15.60
2017,06,19,08,38,15.70
2017,06,19,08,39,15.70
2017,06,19,08,40,15.70
2017,06,19,08,41,15.70
2017,06,19,08,42,15.80
2017,06,19,08,43,15.80
2017,06,19,08,44,15.80
2017,06,19,08,45,15.80
2017,06,19,08,46,15.80
2017,06,19,08,47,15.90
2017,06,19,08,48,15.90
2017,06,19,08,49,15.90
2017,06,19,08,50,15.90
2017,06,19,08,51,15.90
2017,06,19,08,52,16.10
2017,06,19,08,53,16.10
2017,06,19,08,54,16.10
2017,06,19,08,55,16.10
2017,06,19,08,56,16.10
2017,06,19,08,57,16.10
2017,06,19,08,58,16.10
2017,06,19,08,59,16.10
2017,06,19,09,00,16.10
2017,06,19,09,01,16.10
2017,06,19,09,02,16.10
2017,06,19,09,03,16.20
2017,06,19,09,04,16.20
2017,06,19,09,05,16.20
2017,06,19,09,06,16.30
2017,06,19,09,07,16.30
2017,06,19,09,08,16.30
2017,06,19,09,09,16.30
2017,06,19,09,10,16.40
2017,06,19,09,11,16.40
2017,06,19,09,12,16.40
2017,06,19,09,13,16.40
2017,06,19,09,14,16.40
2017,06,19,09,15,16.40
2017,06,19,09,16,16.40
2017,06,19,09,17,16.50
2017,06,19,09,18,16.60
2017,06,19,09,19,16.60
2017,06,19,09,20,16.70
2017,06,19,09,21,16.70
2017,06,19,09,22,16.70
2017,06,19,09,23,16.80
2017,06,19,09,24,16.80
2017,06,19,09,25,16.90
2017,06,19,09,26,16.90
2017,06,19,09,27,16.90
2017,06,19,09,28,17.00
2017,06,19,09,29,17.00
2017,06,19,09,30,17.00
2017,06,19,09,31,17.00
2017,06,19,09,32,17.00
2017,06,19,09,33,17.10
2017,06,19,09,34,17.20
2017,06,19,09,35,17.20
2017,06,19,09,36,17.20
2017,06,19,09,37,17.20
2017,06,19,09,38,17.20
2017,06,19,09,39,17.20
2017,06,19,09,40,17.30
2017,06,19,09,41,17.30
2017,06,19,09,42,17.30
2017,06,19,09,43,17.30
2017,06,19,09,44,17.30
2017,06,19,09,45,17.30
2017,06,19,09,46,17.30
2017,06,19,09,47,17.40
2017,06,19,09,48,17.40
2017,06,19,09,49,17.40
2017,06,19,09,50,17.40
2017,06,19,09,51,17.40
2017,06,19,09,52,17.40
2017,06,19,09,53,17.50
2017,06,19,09,54,17.50
2017,06,19,09,55,17.50
2017,06,19,09,56,17.50
2017,06,19,09,57,17.50
2017,06,19,09,58,17.50
2017,06,19,09,59,17.50
2017,06,19,10,00,17.50
2017,06,19,10,01,17.50
2017,06,19,10,02,17.50
2017,06,19,10,03,17.50
2017,06,19,10,04,17.50
2017,06,19,10,05,17.50
2017,06,19,10,06,17.50
2017,06,19,10,07,17.50
2017,06,19,10,08,17.40
2017,06,19,10,09,17.40
2017,06,19,10,10,17.30
2017,06,19,10,11,17.30
2017,06,19,10,12,17.30
2017,06,19,10,13,17.30
2017,06,19,10,14,17.30
2017,06,19,10,15,17.30
2017,06,19,10,16,17.30
2017,06,19,10,17,17.30
2017,06,19,10,18,17.30
2017,06,19,10,19,17.30
2017,06,19,10,20,17.30
2017,06,19,10,21,17.40
2017,06,19,10,22,17.40
2017,06,19,10,23,17.40
2017,06,19,10,24,17.40
2017,06,19,10,25,17.50
2017,06,19,10,26,17.50
2017,06,19,10,27,17.50
2017,06,19,10,28,17.40
2017,06,19,10,29,17.40
2017,06,19,10,30,17.30
2017,06,19,10,31,17.30
2017,06,19,10,32,17.30
2017,06,19,10,33,17.30
2017,06,19,10,34,17.30
2017,06,19,10,35,17.40
2017,06,19,10,36,17.40
2017,06,19,10,37,17.40
2017,06,19,10,38,17.50
2017,06,19,10,39,17.50
2017,06,19,10,40,17.50
2017,06,19,10,41,17.60
2017,06,19,10,42,17.70
2017,06,19,10,43,17.70
2017,06,19,10,44,17.70
2017,06,19,10,45,17.70
2017,06,19,10,46,17.80
2017,06,19,10,47,17.80
2017,06,19,10,48,17.80
2017,06,19,10,49,17.80
2017,06,19,10,50,17.90
2017,06,19,10,51,17.90
2017,06,19,10,52,17.90
2017,06,19,10,53,17.90
2017,06,19,10,54,17.90
2017,06,19,10,55,17.90
2017,06,19,10,56,17.90
2017,06,19,10,57,17.90
2017,06,19,10,58,17.90
2017,06,19,10,59,17.90
2017,06,19,11,00,17.80
2017,06,19,11,01,17.80
2017,06,19,11,02,17.80
2017,06,19,11,03,17.80
2017,06,19,11,04,17.80
2017,06,19,11,05,17.90
2017,06,19,11,06,17.90
2017,06,19,11,07,17.90
2017,06,19,11,08,17.90
2017,06,19,11,09,17.90
2017,06,19,11,10,17.90
2017,06,19,11,11,17.90
2017,06,19,11,12,17.90
2017,06,19,11,13,17.90
2017,06,19,11,14,17.90
2017,06,19,11,15,17.90
2017,06,19,11,16,17.90
2017,06,19,11,17,17.90
2017,06,19,11,18,17.90
2017,06,19,11,19,17.90
2017,06,19,11,20,17.90
2017,06,19,11,21,17.90
2017,06,19,11,22,17.90
2017,06,19,11,23,17.90
2017,06,19,11,24,17.90
2017,06,19,11,25,17.80
2017,06,19,11,26,17.70
2017,06,19,11,27,17.70
2017,06,19,11,28,17.60
2017,06,19,11,29,17.60
2017,06,19,11,30,17.50
2017,06,19,11,31,17.50
2017,06,19,11,32,17.30
2017,06,19,11,33,17.20
2017,06,19,11,34,17.10
2017,06,19,11,35,17.00
2017,06,19,11,36,16.80
2017,06,19,11,37,16.70
2017,06,19,11,38,16.70
2017,06,19,11,39,16.60
2017,06,19,11,40,16.60
2017,06,19,11,41,16.60
2017,06,19,11,42,16.60
2017,06,19,11,43,16.60
2017,06,19,11,44,16.60
2017,06,19,11,45,16.60
2017,06,19,11,46,16.40
2017,06,19,11,47,16.40
2017,06,19,11,48,16.50
2017,06,19,11,49,16.60
2017,06,19,11,50,16.60
2017,06,19,11,51,16.60
2017,06,19,11,52,16.70
2017,06,19,11,53,16.70
2017,06,19,11,54,16.70
2017,06,19,11,55,16.80
2017,06,19,11,56,16.80
2017,06,19,11,57,16.80
2017,06,19,11,58,16.90
2017,06,19,11,59,16.90
2017,06,19,12,00,17.00
2017,06,19,12,01,17.00
2017,06,19,12,02,17.00
2017,06,19,12,03,17.00
2017,06,19,12,04,17.00
2017,06,19,12,05,17.10
2017,06,19,12,06,17.10
2017,06,19,12,07,17.10
2017,06,19,12,08,17.00
2017,06,19,12,09,17.10
2017,06,19,12,10,17.10
2017,06,19,12,11,17.10
2017,06,19,12,12,17.10
2017,06,19,12,13,17.10
2017,06,19,12,14,17.20
2017,06,19,12,15,17.10
2017,06,19,12,16,17.20
2017,06,19,12,17,17.20
2017,06,19,12,18,17.20
2017,06,19,12,19,17.20
2017,06,19,12,20,17.20
2017,06,19,12,21,17.20
2017,06,19,12,22,17.30
2017,06,19,12,23,17.30
2017,06,19,12,24,17.30
2017,06,19,12,25,17.30
2017,06,19,12,26,17.20
2017,06,19,12,27,17.20
2017,06,19,12,28,17.20
2017,06,19,12,29,17.10
2017,06,19,12,30,17.20
2017,06,19,12,31,17.20
2017,06,19,12,32,17.20
2017,06,19,12,33,17.30
2017,06,19,12,34,17.30
2017,06,19,12,35,17.30
2017,06,19,12,36,17.30
2017,06,19,12,37,17.30
2017,06,19,12,38,17.30
2017,06,19,12,39,17.20
2017,06,19,12,40,17.10
2017,06,19,12,41,17.00
2017,06,19,12,42,17.00
2017,06,19,12,43,16.90
2017,06,19,12,44,16.80
2017,06,19,12,45,16.70
2017,06,19,12,46,16.70
2017,06,19,12,47,16.70
2017,06,19,12,48,16.70
2017,06,19,12,49,16.70
2017,06,19,12,50,16.80
2017,06,19,12,51,16.80
2017,06,19,12,52,16.80
2017,06,19,12,53,16.90
2017,06,19,12,54,16.90
2017,06,19,12,55,16.90
2017,06,19,12,56,16.90
2017,06,19,12,57,17.00
2017,06,19,12,58,17.00
2017,06,19,12,59,17.10
2017,06,19,13,00,17.20
2017,06,19,13,01,17.20
2017,06,19,13,02,17.20
2017,06,19,13,03,17.30
2017,06,19,13,04,17.30
2017,06,19,13,05,17.30
2017,06,19,13,06,17.30
2017,06,19,13,07,17.30
2017,06,19,13,08,17.40
2017,06,19,13,09,17.40
2017,06,19,13,10,17.40
2017,06,19,13,11,17.40
2017,06,19,13,12,17.40
2017,06,19,13,13,17.50
2017,06,19,13,14,17.50
2017,06,19,13,15,17.50
2017,06,19,13,16,17.60
2017,06,19,13,17,17.60
2017,06,19,13,18,17.70
2017,06,19,13,19,17.80
2017,06,19,13,20,17.80
2017,06,19,13,21,17.80
2017,06,19,13,22,17.90
2017,06,19,13,23,17.90
2017,06,19,13,24,18.10
2017,06,19,13,25,18.20
2017,06,19,13,26,18.20
2017,06,19,13,27,18.30
2017,06,19,13,28,18.20
2017,06,19,13,29,18.20
2017,06,19,13,30,18.20
2017,06,19,13,31,18.20
2017,06,19,13,32,18.20
2017,06,19,13,33,18.20
2017,06,19,13,34,18.20
2017,06,19,13,35,18.20
2017,06,19,13,36,18.20
2017,06,19,13,37,18.30
2017,06,19,13,38,18.30
2017,06,19,13,39,18.20
2017,06,19,13,40,18.20
2017,06,19,13,41,18.20
2017,06,19,13,42,18.20
2017,06,19,13,43,18.20
2017,06,19,13,44,18.10
2017,06,19,13,45,18.10
2017,06,19,13,46,18.10
2017,06,19,13,47,18.10
2017,06,19,13,48,18.10
2017,06,19,13,49,18.10
2017,06,19,13,50,18.10
2017,06,19,13,51,18.10
2017,06,19,13,52,18.10
2017,06,19,13,53,18.10
2017,06,19,13,54,18.10
2017,06,19,13,55,18.10
2017,06,19,13,56,18.20
2017,06,19,13,57,18.30
2017,06,19,13,58,18.30
2017,06,19,13,59,18.40
